Flag for Canada Weather past 2 weeks in Kelowna, British Columbia, Canada

Now
79 °F

Sunny.


Feels Like: 79 °F
Forecast: 56 / 77 °F
Wind: 9 mph from North

Location: Kelowna Airport

Current Time: Jul 23, 2014 at 2:10:48 PM

Latest Report: Jul 23, 2014 at 1:00 PM


Visibility: 9 mi

Pressure: 29.87 "Hg

Humidity: 45%

Dew point: 55 °F

Location of KelownaLocation

Historic Weather in Kelowna — Graph

°F

Kelowna temperature yesterday

Maximum temperature yesterday: 75 °F (at 4:00 PM)
Minimum temperature yesterday: 54 °F (at 5:00 AM)
Average temperature yesterday: 64 °F

Past Weeks' High & Low Weather Summary

 TemperatureHumidityPressure
High100 °F (Jul 13, 5:00 PM)88% (Jul 22, 5:00 AM)30.14 "Hg (Jul 22, 5:00 AM)
Low50 °F (Jul 11, 5:00 AM)12% (Jul 12, 4:00 PM)29.68 "Hg (Jul 17, 4:00 PM)
Average75 °F44%29.90 "Hg
* Reported Jul 8 1:00 PM — Jul 23 1:00 PM, Kelowna, Weather by CustomWeather, © 2014

Note: Actual official high and low records may vary slightly from our data, if they occured in-between our weather recording intervals... More about our weather records

Advertising

Kelowna weather history for previous 24 hours

 ConditionsComfort  
Time TempWeatherWind HumidityBarometerVisibility
1:00 PM
Jul 23
79 °FSunny.9 mph45%29.87 "Hg9 mi
12:00 PM75 °FScattered clouds.7 mph47%29.90 "Hg9 mi
11:00 AM72 °FPartly sunny.6 mph53%29.94 "Hg9 mi
10:00 AM72 °FPartly sunny.12 mph53%29.96 "Hg9 mi
9:00 AM68 °FBroken clouds.5 mph60%29.99 "Hg9 mi
8:00 AM64 °FScattered clouds.2 mph68%30.01 "Hg9 mi
7:00 AM61 °FSunny.2 mph72%30.03 "Hg9 mi
6:00 AM55 °FMostly cloudy.2 mph88%30.05 "Hg9 mi
5:00 AM54 °FClear.No wind88%30.05 "Hg9 mi
4:00 AM55 °FPassing clouds.2 mph82%30.05 "Hg9 mi
3:00 AM59 °FClear.No wind77%30.06 "Hg9 mi
2:00 AM57 °FPassing clouds.2 mph82%30.07 "Hg9 mi
1:00 AM57 °FClear.5 mph82%30.08 "Hg9 mi
11:00 PM
Jul 22
66 °FPassing clouds.No wind60%30.08 "Hg9 mi
10:00 PM68 °FClear.9 mph56%30.07 "Hg9 mi
9:00 PM68 °FPartly sunny.9 mph56%30.07 "Hg9 mi
8:00 PM70 °FScattered clouds.13 mph53%30.06 "Hg9 mi
7:00 PM72 °FSunny.16 mph50%30.06 "Hg9 mi
6:00 PM72 °FOvercast.17 mph47%30.07 "Hg9 mi
5:00 PM73 °FPassing clouds.21 mph44%30.07 "Hg9 mi
4:00 PM75 °FSunny.22 mph41%30.06 "Hg9 mi
Weather by CustomWeather, © 2014

See weather overviewHow to use our weather pages